SL-14 R/B (21423 NORAD) Tracking and Keplerian Element Data

This shows tracking and keplerian element data for the satellite.

Feedback or suggestion? Click here.




ElementValue
Catalog21423
NameSL-14 R/B
Epoch Orbit75767
Epoch Day13.11759762
Epoch Year2024
RAAN237.1132
Inclination82.4922
Eccentricity0.0016276
Argument of Perigee307.3338
Mean Anonmoly52.6392
Mean Motion14.80545036
Decay Rate6.35E-06
L11 21423U 91042B 24013.11759762 .00000635 00000+0 79719-4 0 9996
L22 21423 82.4922 237.1132 0016276 307.3338 52.6392 14.80545036757674



Live tracking and technical data element details for SL-14 R/B (NORAD 21423). SL-14 R/B can be tracked NOW for your location showing map with azimuth and elevation plus other details from your city location.







IsCatalogInMostPopularTable: catalog: 21423, numindb: 302
Update: records affected: 1



GetName: 21423 SL-14 R/B

Hit Count: updated at: Sun, 14 Apr 2024 23:50:11 GMT